SITRO-AIS 27

Last updated on Wed Nov 05 2025 00:03:48 GMT+0000 (Coordinated Universal Time)

1 59068U 24039T 25308.62589490 .00004224 00000+0 34444-3 0 9990 2 59068 95.3929 81.0889 0151551 32.0991 328.9351 14.91104180 91249
UTC large
Height (km)
Speed (km/s)
/
Latitude / Longitude
Inclination (degrees)
Orbital Period (minutes)
Azimuth
Elevation
Range (km)
Doppler Factor

Next 0 passes for location: London (51.5072 / 0.1276)

Sorry there are no passes over London.